Regional Weather Roundup
Issued by NWS

Home | Current Version | Previous Version | Graphics & Text | Print | Product List | Glossary On
Versions: 1 2 3 4 5 6 7 8 9 10 11 12 13 14 15 16 17 18 19 20 21 22 23 24 25 26 27 28 29 30 31 32 33 34 35 36 37 38 39 40 41 42 43 44 45 46 47 48 49 50
000
ASUS43 KDTX 250701
RWRMI
MICHIGAN HOURLY REGIONAL WEATHER ROUNDUP
NATIONAL WEATHER SERVICE DETROIT/PONTIAC MI
300 AM EDT THU AUG 25 2016

NOTE: "FAIR" INDICATES FEW OR NO CLOUDS BELOW 12,000 FEET WITH NO
SIGNIFICANT WEATHER AND/OR OBSTRUCTION TO VISIBILITY.

MIZ047>049-052>055-059>063-066>070-074>076-081>083-250800-
SOUTHEAST LOWER MICHIGAN

CITY           SKY/WX    TMP DP  RH WIND       PRES   REMARKS
ADRIAN         CLEAR     70  70 100 W6        29.98F
ALMA           CLOUDY    73  73  99 W9        29.94S FOG
ANN ARBOR      CLOUDY    72  72 100 SW9       29.96R FOG
BAD AXE        MOCLDY    70  70  99 CALM      29.92S FOG
CARO           MOCLDY    70  69  98 CALM      29.92S FOG
DETROIT CITY   CLEAR     74  74 100 W6        29.93F
DETROIT        CLOUDY    73  73 100 SW8       29.96R FOG
FLINT          PTCLDY    73  70  90 W5        29.95R
GROSSE ILE     PTCLDY    72  71  95 W3        29.94R
HILLSDALE      CLOUDY    71  69  93 W5        30.00R
HOWELL         CLOUDY    72  72  99 SW6       29.96R FOG

CITY           SKY/WX    TMP DP  RH WIND       PRES   REMARKS
JACKSON        CLOUDY    71  71 100 SW6       29.98R
LAMBERTVILLE   PTCLDY    73  71  92 W5        29.98R
LANSING        CLOUDY    73  70  90 W7        29.96R
LAPEER         MOCLDY    71  70  96 NW3       29.94S
MASON          CLOUDY    72  71  96 SW3       29.97R FOG
MONROE         CLEAR     71  70  98 W8        29.95R
MT. CLEMENS    CLEAR     73  73 100 SW6       29.91F
PONTIAC        PTCLDY    73  71  93 SW7       29.94S
PORT HURON     MOCLDY    72  72 100 CALM      29.92F FOG
TRI CITIES     CLOUDY    72  71  97 W6        29.94R FOG
MIDLAND        FAIR      71  70  97 SW5       29.92R
TROY           PTCLDY    74  72  93 W6        29.95S FOG
SAGINAW HB     CLOUDY    72  70  94 SW6       29.92S
$$
MIZ043>046-050>051-056>058-064>065-071>073-077>080-250800-
SOUTHWEST LOWER MICHIGAN

CITY           SKY/WX    TMP DP  RH WIND       PRES   REMARKS
BATTLE CREEK   MOCLDY    70  70 100 SW9       29.99R
BENTON HARBOR  CLOUDY    77  70  79 SW8       29.97R
BIG RAPIDS     MOCLDY    73  71  93 CALM      29.94S
COLDWATER      CLOUDY    71  71  99 SW5       29.99S
FREMONT        CLOUDY    70  69  98 CALM      29.94R FOG
HOLLAND        CLOUDY    76  72  87 SW9       29.95S
GRAND RAPIDS   CLOUDY    74  70  87 SW8       29.96R
IONIA          CLOUDY    72  70  93 SW5       29.95R
KALAMAZOO      MOCLDY    73  70  90 SW6       29.98S
LUDINGTON      CLEAR     70  70 100 CALM      29.93R
MARSHALL       MOCLDY    72  72 100 SW5       29.97S
MOUNT PLEASANT MOCLDY    72  70  96 SW3       29.93S FOG
MUSKEGON       CLOUDY    75  73  93 CALM      29.95R
SOUTH HAVEN    CLOUDY    77  74  89 SW6       29.96S
$$
MIZ016>042-250800-
NORTHERN LOWER MICHIGAN

CITY           SKY/WX    TMP DP  RH WIND       PRES   REMARKS
ALPENA         CLEAR     70  67  90 CALM      29.87S
BEAVER ISLAND  CLEAR     67  67  99 CALM      29.87S FOG
BELLAIRE       MOCLDY    71  69  94 SW3       29.90R
CADILLAC       CLEAR     67  66  96 W6        29.94R
CHARLEVOIX     CLEAR     71  70  96 SW8       29.91S
FRANKFORT      CLEAR     68  66  91 CALM      29.91R
GAYLORD        CLOUDY    71  67  87 W5        29.91S
GRAYLING       CLEAR     68  67  97 W5        29.93R FOG
HARBOR SPRINGS CLOUDY    71  69  94 W3        29.88S
HOUGHTON LAKE  MOCLDY    70  68  93 W6        29.94R
MANISTEE       FOG       64  64 100 E3        29.92R VSB 1/4
OSCODA         CLEAR     68  67  98 SW7       29.88S
PELLSTON       MOCLDY    71  68  90 W6        29.88R
ROGERS CITY    CLEAR     71  67  88 W6        29.87S
TRAVERSE CITY  MOCLDY    71  69  93 CALM      29.89R
$$
MIZ007>008-015-250800-
EASTERN UPPER MICHIGAN

CITY           SKY/WX    TMP DP  RH WIND       PRES   REMARKS
KINROSS        CLOUDY    66  66 100 W6        29.86S FOG
MACKINAC ISLAN CLOUDY    70  70 100 W5        29.86S FOG
NEWBERRY       PTCLDY    64  63  97 SW7       29.84F
S. S. MARIE    MOCLDY    66  65  96 CALM      29.84S
$$
MIZ004>006-011>014-085-250800-
CENTRAL UPPER MICHIGAN

CITY           SKY/WX    TMP DP  RH WIND       PRES   REMARKS
MANISTIQUE     CLEAR     66  64  92 CALM      29.85F
ESCANABA       PTCLDY    66  64  93 W7        29.87S
MENOMINEE      MOCLDY   N/A N/A N/A W3        29.91S
SAWYER-GWINN   CLOUDY    63  61  94 W5        29.88F
$$
MIZ001>003-009>011-084-250800-
WESTERN UPPER MICHIGAN

CITY           SKY/WX    TMP DP  RH WIND       PRES   REMARKS
IRON MOUNTAIN  MOCLDY    66  59  78 W7        29.90S
HOUGHTON       MOCLDY    68  58  70 W12       29.86S
COPPER HARBOR    N/A     71  58  63 N9        29.82R
IRONWOOD       CLOUDY    61  56  83 SW7       29.94S
$$

ABBREVIATIONS USED IN REMARKS
   TC - TEMPERATURE IN CELSIUS
  WCI - WIND CHILL INDEX
   HX - HEAT INDEX
  VSB - VISIBILITY





USA.gov is the U.S. government's official web portal to all federal, state and local government web resources and services.